User: anonymous   Login
Location: Unspecified
(0.0000°N, 0.0000°E)
Time: 10:13:05
(UTC+00:00)
Language:

COSMOS 2483 - Orbit

View from above orbital plane
View from above orbital plane
View from above satellite
View from above satellite

Ground track
Ground track

The orbit data is extracted from the following two-line orbital elements,

1 39058U 13001B   18113.85019921 -.00000018 +00000-0 -19985-3 0  9995
2 39058 082.4956 269.7166 0016618 041.2153 319.0186 12.43948153239222
Epoch (UTC): 23 April 2018 20:24:17
Eccentricity: 0.0016618
inclination: 82.4956°
perigee height: 1477 km
apogee height: 1503 km
right ascension of ascending node: 269.7166°
argument of perigee: 41.2153°
revolutions per day: 12.43948153
mean anomaly at epoch: 319.0186°
orbit number at epoch: 23922

The dashed part of the orbit path shows where the satellite is in the earth's shadow,  

DLR